Location: Gad�tanya
(48.0500°N, 20.8500°E)
Time: 03:25:28
(UTC+00:00)

Cosmos 1340 - Visible Passes

Search period start: 27 October 2020 00:00
Search period end: 06 November 2020 00:00
Orbit: 500 x 505 km, 81.2° (Epoch: 26 October)

Date Brightness Start Highest point End Pass type
(mag) Time Alt. Az. Time Alt. Az. Time Alt. Az.
27 Oct 2.8 16:25:51 10° N 16:29:32 49° ENE 16:33:12 10° SSE visible
27 Oct 5.9 18:02:45 10° NW 18:04:42 14° W 18:06:39 10° WSW visible
28 Oct 3.1 16:06:54 10° N 16:10:27 37° ENE 16:14:00 10° SE visible
28 Oct 5.6 17:43:12 10° NW 17:45:46 18° W 17:48:20 10° SW visible
29 Oct 3.5 15:48:01 10° N 15:51:22 29° ENE 15:54:41 10° SE visible
29 Oct 5.2 17:23:50 10° NW 17:26:49 22° W 17:29:49 10° SW visible
30 Oct 4.8 17:04:33 10° NNW 17:07:52 29° W 17:11:09 10° SSW visible
31 Oct 4.3 16:45:21 10° NNW 16:48:53 38° W 16:52:23 10° SSW visible
01 Nov 3.7 16:26:12 10° NNW 16:29:53 50° W 16:33:32 10° S visible
02 Nov 4.8 04:42:20 10° SSE 04:45:42 32° E 04:49:06 10° NNE visible
02 Nov 3.1 16:07:06 10° NNW 16:10:52 68° W 16:14:37 10° S visible
03 Nov 5.3 04:23:37 10° SSE 04:26:43 25° E 04:29:51 10° NE visible
03 Nov 2.7 15:48:01 10° NNW 15:51:50 89° WNW 15:55:37 10° S visible
04 Nov 5.7 04:05:01 10° SE 04:07:46 19° E 04:10:31 10° NE visible
04 Nov 6.5 17:07:19 10° WNW 17:07:47 10° W 17:08:15 10° W visible
05 Nov 6.0 03:46:35 10° SE 03:48:49 15° E 03:51:03 10° NE visible
05 Nov 6.1 16:46:59 10° WNW 16:48:51 13° W 16:50:43 10° WSW visible
